Time,TemperatureF,DewpointF,PressureIn,WindDirection,WindDirectionDegrees,WindSpeedMPH,WindSpeedGustMPH,Humidity,HourlyPrecipIn,Conditions,Clouds,dailyrainin,SoftwareType,DateUTC
2013-03-30 00:00:00,39.5,30.2,30.29,NNW,336,0.0,0.0,69,0.00,,,0.00,WX3IN1Plus v1.30,2013-03-30 04:00:00,
2013-03-30 00:06:00,39.4,30.2,30.29,NNW,336,0.0,0.0,69,0.00,,,0.00,WX3IN1Plus v1.30,2013-03-30 04:06:00,
2013-03-30 00:11:00,39.4,30.2,30.29,NNW,336,0.0,0.0,69,0.00,,,0.00,WX3IN1Plus v1.30,2013-03-30 04:11:00,
2013-03-30 00:16:00,39.5,30.2,30.29,NNW,336,0.0,0.0,69,0.00,,,0.00,WX3IN1Plus v1.30,2013-03-30 04:16:00,
2013-03-30 00:20:00,39.5,30.4,30.29,NNW,336,0.0,0.0,70,0.00,,,0.00,WX3IN1Plus v1.30,2013-03-30 04:20:00,
2013-03-30 00:26:00,39.7,30.4,30.29,NNW,336,0.0,0.0,70,0.00,,,0.00,WX3IN1Plus v1.30,2013-03-30 04:26:00,
2013-03-30 00:31:00,39.8,30.6,30.29,NNW,336,0.0,0.0,70,0.00,,,0.00,WX3IN1Plus v1.30,2013-03-30 04:31:00,
2013-03-30 00:36:00,39.9,30.6,30.29,NNW,336,0.0,0.0,70,0.00,,,0.00,WX3IN1Plus v1.30,2013-03-30 04:36:00,
2013-03-30 00:41:00,39.8,30.6,30.29,NNW,336,0.0,0.0,70,0.00,,,0.00,WX3IN1Plus v1.30,2013-03-30 04:41:00,
2013-03-30 00:46:00,39.9,30.6,30.29,NNW,336,0.0,0.0,70,0.00,,,0.00,WX3IN1Plus v1.30,2013-03-30 04:46:00,
2013-03-30 00:51:00,40.0,31.0,30.29,NNW,336,0.0,0.0,70,0.00,,,0.00,WX3IN1Plus v1.30,2013-03-30 04:51:00,
2013-03-30 00:56:00,40.2,31.1,30.29,NNW,336,0.0,0.0,70,0.00,,,0.00,WX3IN1Plus v1.30,2013-03-30 04:56:00,
2013-03-30 01:01:00,40.1,31.1,30.29,NNW,336,0.0,0.0,70,0.00,,,0.00,WX3IN1Plus v1.30,2013-03-30 05:01:00,
2013-03-30 01:06:00,40.2,31.1,30.29,NNW,336,0.0,0.0,70,0.00,,,0.00,WX3IN1Plus v1.30,2013-03-30 05:06:00,
2013-03-30 01:11:00,40.1,31.1,30.29,NNW,336,0.0,0.0,70,0.00,,,0.00,WX3IN1Plus v1.30,2013-03-30 05:11:00,
2013-03-30 01:16:00,40.2,31.1,30.29,NNW,336,0.0,0.0,70,0.00,,,0.00,WX3IN1Plus v1.30,2013-03-30 05:16:00,
2013-03-30 01:21:00,40.0,30.6,30.29,NNW,336,0.0,0.0,69,0.00,,,0.00,WX3IN1Plus v1.30,2013-03-30 05:21:00,
2013-03-30 01:26:00,40.0,30.6,30.29,NNW,336,0.0,0.0,69,0.00,,,0.00,WX3IN1Plus v1.30,2013-03-30 05:26:00,
2013-03-30 01:31:00,40.1,31.1,30.29,NNW,336,0.0,0.0,70,0.00,,,0.00,WX3IN1Plus v1.30,2013-03-30 05:31:00,
2013-03-30 01:36:00,40.1,31.1,30.29,NNW,336,0.0,0.0,70,0.00,,,0.00,WX3IN1Plus v1.30,2013-03-30 05:36:00,
2013-03-30 01:41:00,39.9,30.6,30.29,NNW,336,0.0,0.0,70,0.00,,,0.00,WX3IN1Plus v1.30,2013-03-30 05:41:00,
2013-03-30 01:47:00,40.0,30.6,30.29,NNW,336,0.0,0.0,69,0.00,,,0.00,WX3IN1Plus v1.30,2013-03-30 05:47:00,
2013-03-30 01:52:00,40.1,30.4,30.29,NNW,336,0.0,0.0,68,0.00,,,0.00,WX3IN1Plus v1.30,2013-03-30 05:52:00,
2013-03-30 01:57:00,40.0,30.2,30.28,NNW,336,0.0,0.0,68,0.00,,,0.00,WX3IN1Plus v1.30,2013-03-30 05:57:00,
2013-03-30 02:02:00,40.0,30.2,30.29,NNW,336,0.0,0.0,68,0.00,,,0.00,WX3IN1Plus v1.30,2013-03-30 06:02:00,
2013-03-30 02:07:00,39.9,29.9,30.28,NNW,336,0.0,0.0,68,0.00,,,0.00,WX3IN1Plus v1.30,2013-03-30 06:07:00,
2013-03-30 02:12:00,39.9,29.7,30.28,NNW,336,0.0,0.0,67,0.00,,,0.00,WX3IN1Plus v1.30,2013-03-30 06:12:00,
2013-03-30 02:17:00,40.1,30.2,30.28,NNW,336,0.0,0.0,67,0.00,,,0.00,WX3IN1Plus v1.30,2013-03-30 06:17:00,
2013-03-30 02:22:00,40.0,29.9,30.28,NNW,336,0.0,0.0,67,0.00,,,0.00,WX3IN1Plus v1.30,2013-03-30 06:22:00,
2013-03-30 02:27:00,40.1,30.4,30.28,NNW,336,0.0,0.0,68,0.00,,,0.00,WX3IN1Plus v1.30,2013-03-30 06:27:00,
2013-03-30 02:32:00,40.0,30.2,30.28,NNW,336,0.0,0.0,68,0.00,,,0.00,WX3IN1Plus v1.30,2013-03-30 06:32:00,
2013-03-30 02:37:00,40.0,30.2,30.28,NNW,336,0.0,0.0,68,0.00,,,0.00,WX3IN1Plus v1.30,2013-03-30 06:37:00,
2013-03-30 02:42:00,40.0,30.2,30.28,NNW,336,0.0,0.0,68,0.00,,,0.00,WX3IN1Plus v1.30,2013-03-30 06:42:00,
2013-03-30 02:47:00,39.7,29.7,30.28,NNW,336,0.0,0.0,68,0.00,,,0.00,WX3IN1Plus v1.30,2013-03-30 06:47:00,
2013-03-30 02:52:00,39.6,29.7,30.28,NNW,336,0.0,0.0,68,0.00,,,0.00,WX3IN1Plus v1.30,2013-03-30 06:52:00,
2013-03-30 02:57:00,39.3,29.3,30.28,NNW,336,0.0,0.0,68,0.00,,,0.00,WX3IN1Plus v1.30,2013-03-30 06:57:00,
2013-03-30 03:02:00,39.1,29.2,30.28,NNW,336,0.0,0.0,68,0.00,,,0.00,WX3IN1Plus v1.30,2013-03-30 07:02:00,
2013-03-30 03:07:00,39.1,29.2,30.28,NNW,336,0.0,0.0,68,0.00,,,0.00,WX3IN1Plus v1.30,2013-03-30 07:07:00,
2013-03-30 03:12:00,38.8,29.3,30.28,NNW,336,0.0,0.0,69,0.00,,,0.00,WX3IN1Plus v1.30,2013-03-30 07:12:00,
2013-03-30 03:17:00,38.6,29.2,30.28,NNW,336,0.0,0.0,69,0.00,,,0.00,WX3IN1Plus v1.30,2013-03-30 07:17:00,
2013-03-30 03:22:00,38.1,29.0,30.28,NNW,336,0.0,0.0,70,0.00,,,0.00,WX3IN1Plus v1.30,2013-03-30 07:22:00,
2013-03-30 03:27:00,37.9,29.2,30.28,NNW,336,0.0,0.0,71,0.00,,,0.00,WX3IN1Plus v1.30,2013-03-30 07:27:00,
2013-03-30 03:32:00,37.8,29.3,30.28,NNW,336,0.0,0.0,72,0.00,,,0.00,WX3IN1Plus v1.30,2013-03-30 07:32:00,
2013-03-30 03:37:00,37.3,29.0,30.28,NNW,336,0.0,0.0,72,0.00,,,0.00,WX3IN1Plus v1.30,2013-03-30 07:37:00,
2013-03-30 03:42:00,37.0,29.2,30.28,NNW,336,0.0,0.0,73,0.00,,,0.00,WX3IN1Plus v1.30,2013-03-30 07:42:00,
2013-03-30 03:47:00,36.8,29.0,30.28,NNW,336,0.0,0.0,73,0.00,,,0.00,WX3IN1Plus v1.30,2013-03-30 07:47:00,
2013-03-30 03:52:00,36.4,29.0,30.28,NNW,336,0.0,0.0,74,0.00,,,0.00,WX3IN1Plus v1.30,2013-03-30 07:52:00,
2013-03-30 03:57:00,36.3,28.6,30.28,NNW,336,0.0,0.0,74,0.00,,,0.00,WX3IN1Plus v1.30,2013-03-30 07:57:00,
2013-03-30 04:02:00,35.9,28.6,30.28,NNW,336,0.0,0.0,75,0.00,,,0.00,WX3IN1Plus v1.30,2013-03-30 08:02:00,
2013-03-30 04:07:00,35.4,28.4,30.28,NNW,336,0.0,0.0,76,0.00,,,0.00,WX3IN1Plus v1.30,2013-03-30 08:07:00,
2013-03-30 04:12:00,35.2,28.4,30.28,NNW,336,0.0,0.0,76,0.00,,,0.00,WX3IN1Plus v1.30,2013-03-30 08:12:00,
2013-03-30 04:17:00,34.9,28.4,30.28,NNW,336,0.0,0.0,77,0.00,,,0.00,WX3IN1Plus v1.30,2013-03-30 08:17:00,
2013-03-30 04:22:00,34.8,28.3,30.28,NNW,336,0.0,0.0,77,0.00,,,0.00,WX3IN1Plus v1.30,2013-03-30 08:22:00,
2013-03-30 04:27:00,34.5,28.3,30.28,NNW,336,0.0,0.0,78,0.00,,,0.00,WX3IN1Plus v1.30,2013-03-30 08:27:00,
2013-03-30 04:32:00,34.3,27.9,30.28,NNW,336,0.0,0.0,78,0.00,,,0.00,WX3IN1Plus v1.30,2013-03-30 08:32:00,
2013-03-30 04:37:00,34.2,28.3,30.28,NNW,336,0.0,0.0,79,0.00,,,0.00,WX3IN1Plus v1.30,2013-03-30 08:37:00,
2013-03-30 04:42:00,34.0,27.9,30.28,NNW,336,0.0,0.0,79,0.00,,,0.00,WX3IN1Plus v1.30,2013-03-30 08:42:00,
2013-03-30 04:47:00,34.0,28.4,30.28,NNW,336,0.0,0.0,80,0.00,,,0.00,WX3IN1Plus v1.30,2013-03-30 08:47:00,
2013-03-30 04:52:00,33.9,28.6,30.28,NNW,336,0.0,0.0,81,0.00,,,0.00,WX3IN1Plus v1.30,2013-03-30 08:52:00,
2013-03-30 04:57:00,33.8,28.4,30.28,NNW,336,0.0,0.0,80,0.00,,,0.00,WX3IN1Plus v1.30,2013-03-30 08:57:00,
2013-03-30 05:02:00,33.9,28.4,30.28,NNW,336,0.0,0.0,80,0.00,,,0.00,WX3IN1Plus v1.30,2013-03-30 09:02:00,
2013-03-30 05:07:00,33.9,28.6,30.28,NNW,336,0.0,0.0,81,0.00,,,0.00,WX3IN1Plus v1.30,2013-03-30 09:07:00,
2013-03-30 05:12:00,34.0,28.6,30.28,NNW,336,0.0,0.0,81,0.00,,,0.00,WX3IN1Plus v1.30,2013-03-30 09:12:00,
2013-03-30 05:17:00,34.0,29.0,30.28,NNW,336,0.0,0.0,82,0.00,,,0.00,WX3IN1Plus v1.30,2013-03-30 09:17:00,
2013-03-30 05:23:00,34.0,29.0,30.28,NNW,336,0.0,0.0,82,0.00,,,0.00,WX3IN1Plus v1.30,2013-03-30 09:23:00,
2013-03-30 05:28:00,34.0,29.0,30.28,NNW,336,0.0,0.0,82,0.00,,,0.00,WX3IN1Plus v1.30,2013-03-30 09:28:00,
2013-03-30 05:33:00,34.2,29.2,30.28,NNW,336,0.0,0.0,82,0.00,,,0.00,WX3IN1Plus v1.30,2013-03-30 09:33:00,
2013-03-30 05:34:00,34.2,29.2,30.28,NNW,336,0.0,0.0,82,0.00,,,0.00,WX3IN1Plus v1.30,2013-03-30 09:34:00,
2013-03-30 05:39:00,34.4,29.3,30.28,NNW,336,0.0,0.0,82,0.00,,,0.00,WX3IN1Plus v1.30,2013-03-30 09:39:00,
2013-03-30 05:44:00,34.5,29.3,30.28,NNW,336,0.0,0.0,82,0.00,,,0.00,WX3IN1Plus v1.30,2013-03-30 09:44:00,
2013-03-30 05:49:00,34.7,29.7,30.28,NNW,336,0.0,0.0,82,0.00,,,0.00,WX3IN1Plus v1.30,2013-03-30 09:49:00,
2013-03-30 05:54:00,34.7,29.7,30.29,NNW,336,0.0,0.0,82,0.00,,,0.00,WX3IN1Plus v1.30,2013-03-30 09:54:00,
2013-03-30 05:59:00,34.7,29.7,30.29,NNW,336,0.0,0.0,82,0.00,,,0.00,WX3IN1Plus v1.30,2013-03-30 09:59:00,
2013-03-30 06:04:00,34.9,29.7,30.29,NNW,336,0.0,0.0,81,0.00,,,0.00,WX3IN1Plus v1.30,2013-03-30 10:04:00,
2013-03-30 06:09:00,35.0,29.7,30.29,NNW,336,0.0,0.0,81,0.00,,,0.00,WX3IN1Plus v1.30,2013-03-30 10:09:00,
2013-03-30 06:14:00,35.0,29.7,30.29,NNW,336,0.0,0.0,81,0.00,,,0.00,WX3IN1Plus v1.30,2013-03-30 10:14:00,
2013-03-30 06:19:00,35.0,29.7,30.29,NNW,336,0.0,0.0,81,0.00,,,0.00,WX3IN1Plus v1.30,2013-03-30 10:19:00,
2013-03-30 06:24:00,35.0,29.7,30.29,NNW,336,0.0,0.0,81,0.00,,,0.00,WX3IN1Plus v1.30,2013-03-30 10:24:00,
2013-03-30 06:29:00,35.0,29.7,30.29,NNW,336,0.0,0.0,81,0.00,,,0.00,WX3IN1Plus v1.30,2013-03-30 10:29:00,
2013-03-30 06:34:00,35.1,29.9,30.29,NNW,336,0.0,0.0,81,0.00,,,0.00,WX3IN1Plus v1.30,2013-03-30 10:34:00,
2013-03-30 06:39:00,35.0,29.7,30.29,NNW,336,0.0,0.0,81,0.00,,,0.00,WX3IN1Plus v1.30,2013-03-30 10:39:00,
2013-03-30 06:44:00,35.0,29.7,30.29,NNW,336,0.0,0.0,81,0.00,,,0.00,WX3IN1Plus v1.30,2013-03-30 10:44:00,
2013-03-30 06:49:00,35.0,29.9,30.29,NNW,336,0.0,0.0,82,0.00,,,0.00,WX3IN1Plus v1.30,2013-03-30 10:49:00,
2013-03-30 06:54:00,35.1,30.2,30.30,NNW,336,0.0,0.0,82,0.00,,,0.00,WX3IN1Plus v1.30,2013-03-30 10:54:00,
2013-03-30 06:59:00,35.1,30.2,30.30,NNW,336,0.0,0.0,82,0.00,,,0.00,WX3IN1Plus v1.30,2013-03-30 10:59:00,
2013-03-30 07:04:00,35.1,30.2,30.30,NNW,336,0.0,0.0,82,0.00,,,0.00,WX3IN1Plus v1.30,2013-03-30 11:04:00,
2013-03-30 07:09:00,35.1,30.2,30.30,NNW,336,0.0,0.0,82,0.00,,,0.00,WX3IN1Plus v1.30,2013-03-30 11:09:00,
2013-03-30 07:14:00,35.1,30.2,30.31,North,11,0.0,3.4,82,0.00,,,0.00,WX3IN1Plus v1.30,2013-03-30 11:14:00,
2013-03-30 07:19:00,35.3,30.2,30.31,North,11,0.0,0.0,82,0.00,,,0.00,WX3IN1Plus v1.30,2013-03-30 11:19:00,
2013-03-30 07:24:00,35.5,30.4,30.31,North,11,0.0,0.0,82,0.00,,,0.00,WX3IN1Plus v1.30,2013-03-30 11:24:00,
2013-03-30 07:29:00,35.7,30.6,30.31,North,11,0.0,0.0,82,0.00,,,0.00,WX3IN1Plus v1.30,2013-03-30 11:29:00,
2013-03-30 07:34:00,35.6,30.6,30.31,North,11,0.0,0.0,82,0.00,,,0.00,WX3IN1Plus v1.30,2013-03-30 11:34:00,
2013-03-30 07:39:00,35.8,30.6,30.31,North,11,0.0,0.0,81,0.00,,,0.00,WX3IN1Plus v1.30,2013-03-30 11:39:00,
2013-03-30 07:44:00,36.2,31.0,30.32,North,11,0.0,0.0,81,0.00,,,0.00,WX3IN1Plus v1.30,2013-03-30 11:44:00,
2013-03-30 07:49:00,36.5,31.1,30.31,North,11,0.0,0.0,81,0.00,,,0.00,WX3IN1Plus v1.30,2013-03-30 11:49:00,
2013-03-30 07:54:00,36.8,31.1,30.32,North,11,0.0,0.0,80,0.00,,,0.00,WX3IN1Plus v1.30,2013-03-30 11:54:00,
2013-03-30 07:59:00,37.0,31.0,30.32,East,82,0.0,1.3,79,0.00,,,0.00,WX3IN1Plus v1.30,2013-03-30 11:59:00,
2013-03-30 08:04:00,37.5,31.3,30.32,East,82,0.0,0.0,79,0.00,,,0.00,WX3IN1Plus v1.30,2013-03-30 12:04:00,
2013-03-30 08:09:00,37.9,31.7,30.31,East,82,0.0,0.0,79,0.00,,,0.00,WX3IN1Plus v1.30,2013-03-30 12:09:00,
2013-03-30 08:14:00,38.3,32.0,30.32,East,82,0.0,0.0,78,0.00,,,0.00,WX3IN1Plus v1.30,2013-03-30 12:14:00,
2013-03-30 08:19:00,38.6,31.9,30.32,East,82,0.0,0.0,77,0.00,,,0.00,WX3IN1Plus v1.30,2013-03-30 12:19:00,
2013-03-30 08:24:00,39.0,32.0,30.32,North,11,0.0,1.2,76,0.00,,,0.00,WX3IN1Plus v1.30,2013-03-30 12:24:00,
2013-03-30 08:29:00,39.4,32.3,30.32,North,11,0.0,0.0,76,0.00,,,0.00,WX3IN1Plus v1.30,2013-03-30 12:29:00,
2013-03-30 08:34:00,40.0,32.3,30.32,North,11,0.0,0.0,75,0.00,,,0.00,WX3IN1Plus v1.30,2013-03-30 12:34:00,
2013-03-30 08:39:00,40.4,32.1,30.33,WNW,298,1.9,3.0,73,0.00,,,0.00,WX3IN1Plus v1.30,2013-03-30 12:39:00,
2013-03-30 08:44:00,41.0,32.9,30.33,NNE,15,0.0,3.1,73,0.00,,,0.00,WX3IN1Plus v1.30,2013-03-30 12:44:00,
2013-03-30 08:49:00,41.4,33.0,30.32,NNE,15,0.0,0.0,73,0.00,,,0.00,WX3IN1Plus v1.30,2013-03-30 12:49:00,
2013-03-30 08:54:00,41.8,32.9,30.33,NNE,15,0.0,0.0,71,0.00,,,0.00,WX3IN1Plus v1.30,2013-03-30 12:54:00,
2013-03-30 08:59:00,42.3,33.4,30.33,NNE,15,0.0,0.0,71,0.00,,,0.00,WX3IN1Plus v1.30,2013-03-30 12:59:00,
2013-03-30 09:04:00,42.9,33.4,30.33,NNE,15,0.0,0.0,70,0.00,,,0.00,WX3IN1Plus v1.30,2013-03-30 13:04:00,
2013-03-30 09:09:00,43.5,33.0,30.33,NNE,15,0.0,0.0,68,0.00,,,0.00,WX3IN1Plus v1.30,2013-03-30 13:09:00,
2013-03-30 09:14:00,44.0,32.9,30.33,NNE,15,0.0,0.0,66,0.00,,,0.00,WX3IN1Plus v1.30,2013-03-30 13:14:00,
2013-03-30 09:19:00,44.7,33.4,30.33,NNE,15,0.0,0.0,65,0.00,,,0.00,WX3IN1Plus v1.30,2013-03-30 13:19:00,
2013-03-30 09:24:00,45.4,33.6,30.33,North,8,0.0,3.1,64,0.00,,,0.00,WX3IN1Plus v1.30,2013-03-30 13:24:00,
2013-03-30 09:29:00,45.9,33.4,30.33,North,2,1.4,4.4,62,0.00,,,0.00,WX3IN1Plus v1.30,2013-03-30 13:29:00,
2013-03-30 09:34:00,46.6,32.7,30.33,ENE,74,3.0,6.5,59,0.00,,,0.00,WX3IN1Plus v1.30,2013-03-30 13:34:00,
2013-03-30 09:39:00,47.0,33.0,30.33,NNE,12,0.3,5.6,59,0.00,,,0.00,WX3IN1Plus v1.30,2013-03-30 13:39:00,
2013-03-30 09:44:00,47.3,33.0,30.33,ESE,115,1.1,3.2,58,0.00,,,0.00,WX3IN1Plus v1.30,2013-03-30 13:44:00,
2013-03-30 09:49:00,47.7,32.9,30.33,NE,36,0.0,5.0,57,0.00,,,0.00,WX3IN1Plus v1.30,2013-03-30 13:49:00,
2013-03-30 09:54:00,48.2,32.9,30.33,NNE,16,4.2,6.6,56,0.00,,,0.00,WX3IN1Plus v1.30,2013-03-30 13:54:00,
2013-03-30 09:59:00,48.7,32.3,30.33,NNE,12,0.0,4.5,54,0.00,,,0.00,WX3IN1Plus v1.30,2013-03-30 13:59:00,
2013-03-30 10:04:00,49.1,32.9,30.32,SE,143,0.0,2.6,54,0.00,,,0.00,WX3IN1Plus v1.30,2013-03-30 14:04:00,
2013-03-30 10:09:00,49.4,32.9,30.33,SE,144,0.0,2.5,53,0.00,,,0.00,WX3IN1Plus v1.30,2013-03-30 14:09:00,
2013-03-30 10:14:00,49.8,32.7,30.33,East,85,1.8,4.7,52,0.00,,,0.00,WX3IN1Plus v1.30,2013-03-30 14:14:00,
2013-03-30 10:19:00,50.2,32.1,30.32,NNE,19,0.9,3.5,50,0.00,,,0.00,WX3IN1Plus v1.30,2013-03-30 14:19:00,
2013-03-30 10:24:00,50.4,31.7,30.32,NNE,22,4.1,4.1,48,0.00,,,0.00,WX3IN1Plus v1.30,2013-03-30 14:24:00,
2013-03-30 10:29:00,50.5,31.7,30.32,SE,126,0.0,6.6,48,0.00,,,0.00,WX3IN1Plus v1.30,2013-03-30 14:29:00,
2013-03-30 10:34:00,50.8,31.1,30.32,West,271,5.0,5.6,47,0.00,,,0.00,WX3IN1Plus v1.30,2013-03-30 14:34:00,
2013-03-30 10:39:00,51.1,31.0,30.32,SW,227,0.0,5.4,46,0.00,,,0.00,WX3IN1Plus v1.30,2013-03-30 14:39:00,
2013-03-30 10:44:00,51.5,32.3,30.32,SW,216,0.0,1.3,48,0.00,,,0.00,WX3IN1Plus v1.30,2013-03-30 14:44:00,
2013-03-30 10:49:00,51.9,31.1,30.32,NNW,344,0.8,3.9,45,0.00,,,0.00,WX3IN1Plus v1.30,2013-03-30 14:49:00,
2013-03-30 10:54:00,52.0,31.3,30.32,NW,305,0.0,4.6,45,0.00,,,0.00,WX3IN1Plus v1.30,2013-03-30 14:54:00,
2013-03-30 10:59:00,52.2,31.0,30.32,NW,305,0.0,0.0,44,0.00,,,0.00,WX3IN1Plus v1.30,2013-03-30 14:59:00,
2013-03-30 11:04:00,52.3,31.3,30.31,NW,305,0.0,0.0,45,0.00,,,0.00,WX3IN1Plus v1.30,2013-03-30 15:04:00,
2013-03-30 11:09:00,52.7,32.1,30.31,ESE,112,0.0,4.7,46,0.00,,,0.00,WX3IN1Plus v1.30,2013-03-30 15:09:00,
2013-03-30 11:14:00,53.3,32.1,30.31,South,175,0.0,6.1,45,0.00,,,0.00,WX3IN1Plus v1.30,2013-03-30 15:14:00,
2013-03-30 11:19:00,53.8,32.1,30.31,NE,45,0.0,4.5,44,0.00,,,0.00,WX3IN1Plus v1.30,2013-03-30 15:19:00,
2013-03-30 11:24:00,54.4,31.7,30.31,ESE,122,1.1,4.7,42,0.00,,,0.00,WX3IN1Plus v1.30,2013-03-30 15:24:00,
2013-03-30 11:29:00,54.9,31.7,30.31,NNE,22,0.0,3.0,41,0.00,,,0.00,WX3IN1Plus v1.30,2013-03-30 15:29:00,
2013-03-30 11:35:00,55.2,31.9,30.31,NNW,347,0.6,3.6,41,0.00,,,0.00,WX3IN1Plus v1.30,2013-03-30 15:35:00,
2013-03-30 11:40:00,54.7,29.3,30.30,WNW,285,2.0,6.2,38,0.00,,,0.00,WX3IN1Plus v1.30,2013-03-30 15:40:00,
2013-03-30 11:45:00,54.2,30.2,30.30,NNW,337,2.6,4.2,40,0.00,,,0.00,WX3IN1Plus v1.30,2013-03-30 15:45:00,
2013-03-30 11:50:00,53.8,29.3,30.30,NW,324,0.0,5.9,39,0.00,,,0.00,WX3IN1Plus v1.30,2013-03-30 15:50:00,
2013-03-30 11:55:00,54.1,29.7,30.30,NE,50,1.5,4.7,39,0.00,,,0.00,WX3IN1Plus v1.30,2013-03-30 15:55:00,
2013-03-30 12:00:00,54.9,29.7,30.29,WSW,253,6.7,8.5,38,0.00,,,0.00,WX3IN1Plus v1.30,2013-03-30 16:00:00,
2013-03-30 12:05:00,55.8,30.4,30.29,West,261,5.1,9.4,38,0.00,,,0.00,WX3IN1Plus v1.30,2013-03-30 16:05:00,
2013-03-30 12:10:00,56.0,29.3,30.29,NNW,348,4.0,7.7,36,0.00,,,0.00,WX3IN1Plus v1.30,2013-03-30 16:10:00,
2013-03-30 12:15:00,56.0,29.3,30.29,NNW,338,6.5,8.7,36,0.00,,,0.00,WX3IN1Plus v1.30,2013-03-30 16:15:00,
2013-03-30 12:20:00,55.5,29.7,30.29,WNW,300,0.0,7.4,37,0.00,,,0.00,WX3IN1Plus v1.30,2013-03-30 16:20:00,
2013-03-30 12:25:00,55.6,29.9,30.29,WNW,284,1.4,8.7,37,0.00,,,0.00,WX3IN1Plus v1.30,2013-03-30 16:25:00,
2013-03-30 12:30:00,55.4,28.3,30.28,North,7,0.0,7.7,35,0.00,,,0.00,WX3IN1Plus v1.30,2013-03-30 16:30:00,
2013-03-30 12:35:00,55.7,29.2,30.28,SW,215,1.0,8.2,36,0.00,,,0.00,WX3IN1Plus v1.30,2013-03-30 16:35:00,
2013-03-30 12:40:00,56.3,29.0,30.28,NNW,338,0.0,6.2,35,0.00,,,0.00,WX3IN1Plus v1.30,2013-03-30 16:40:00,
2013-03-30 12:45:00,56.5,28.4,30.28,NW,313,0.8,11.4,34,0.00,,,0.00,WX3IN1Plus v1.30,2013-03-30 16:45:00,
2013-03-30 12:50:00,56.6,29.2,30.28,West,277,1.2,7.5,35,0.00,,,0.00,WX3IN1Plus v1.30,2013-03-30 16:50:00,
2013-03-30 12:55:00,56.2,28.3,30.28,WSW,253,1.4,7.0,34,0.00,,,0.00,WX3IN1Plus v1.30,2013-03-30 16:55:00,
2013-03-30 13:00:00,56.0,27.9,30.28,WNW,293,1.9,5.0,34,0.00,,,0.00,WX3IN1Plus v1.30,2013-03-30 17:00:00,
2013-03-30 13:05:00,55.8,27.7,30.27,North,9,0.0,8.7,34,0.00,,,0.00,WX3IN1Plus v1.30,2013-03-30 17:05:00,
2013-03-30 13:10:00,56.3,28.3,30.27,WSW,255,3.7,8.0,34,0.00,,,0.00,WX3IN1Plus v1.30,2013-03-30 17:10:00,
2013-03-30 13:15:00,57.3,27.7,30.27,NE,40,4.3,5.6,32,0.00,,,0.00,WX3IN1Plus v1.30,2013-03-30 17:15:00,
2013-03-30 13:20:00,57.8,28.3,30.27,North,358,6.0,9.8,32,0.00,,,0.00,WX3IN1Plus v1.30,2013-03-30 17:20:00,
2013-03-30 13:25:00,57.7,27.9,30.27,North,350,4.8,9.8,32,0.00,,,0.00,WX3IN1Plus v1.30,2013-03-30 17:25:00,
2013-03-30 13:30:00,57.2,28.4,30.27,NNE,28,6.0,7.0,33,0.00,,,0.00,WX3IN1Plus v1.30,2013-03-30 17:30:00,
2013-03-30 13:35:00,56.7,27.9,30.26,NNW,327,0.0,8.8,33,0.00,,,0.00,WX3IN1Plus v1.30,2013-03-30 17:35:00,
2013-03-30 13:40:00,56.6,28.4,30.26,ESE,122,0.0,6.0,34,0.00,,,0.00,WX3IN1Plus v1.30,2013-03-30 17:40:00,
2013-03-30 13:45:00,56.6,28.4,30.26,NNW,348,1.1,7.5,34,0.00,,,0.00,WX3IN1Plus v1.30,2013-03-30 17:45:00,
2013-03-30 13:50:00,56.9,27.9,30.26,North,0,0.0,2.8,33,0.00,,,0.00,WX3IN1Plus v1.30,2013-03-30 17:50:00,
2013-03-30 13:55:00,57.1,29.0,30.26,West,262,1.8,5.7,34,0.00,,,0.00,WX3IN1Plus v1.30,2013-03-30 17:55:00,
2013-03-30 14:00:00,57.6,28.6,30.25,South,172,3.4,5.7,33,0.00,,,0.00,WX3IN1Plus v1.30,2013-03-30 18:00:00,
2013-03-30 14:05:00,58.3,29.9,30.25,WSW,244,3.7,5.0,34,0.00,,,0.00,WX3IN1Plus v1.30,2013-03-30 18:05:00,
2013-03-30 14:10:00,59.2,28.6,30.25,WNW,295,6.0,11.6,31,0.00,,,0.00,WX3IN1Plus v1.30,2013-03-30 18:10:00,
2013-03-30 14:15:00,59.5,25.4,30.25,SSW,199,0.6,8.4,27,0.00,,,0.00,WX3IN1Plus v1.30,2013-03-30 18:15:00,
2013-03-30 14:20:00,59.6,27.2,30.25,SSW,199,0.0,1.1,29,0.00,,,0.00,WX3IN1Plus v1.30,2013-03-30 18:20:00,
2013-03-30 14:25:00,59.4,28.6,30.24,SW,227,3.1,7.5,31,0.00,,,0.00,WX3IN1Plus v1.30,2013-03-30 18:25:00,
2013-03-30 14:30:00,59.4,27.0,30.24,NW,322,4.9,7.2,29,0.00,,,0.00,WX3IN1Plus v1.30,2013-03-30 18:30:00,
2013-03-30 14:35:00,59.2,27.9,30.24,NNW,336,2.9,5.0,30,0.00,,,0.00,WX3IN1Plus v1.30,2013-03-30 18:35:00,
2013-03-30 14:40:00,58.9,27.5,30.24,NNE,23,8.8,8.8,30,0.00,,,0.00,WX3IN1Plus v1.30,2013-03-30 18:40:00,
2013-03-30 14:45:00,59.0,26.8,30.23,NNE,21,1.9,9.4,29,0.00,,,0.00,WX3IN1Plus v1.30,2013-03-30 18:45:00,
2013-03-30 14:50:00,59.3,28.6,30.23,West,262,0.0,6.0,31,0.00,,,0.00,WX3IN1Plus v1.30,2013-03-30 18:50:00,
2013-03-30 14:55:00,59.4,28.6,30.23,NNW,341,5.4,6.5,31,0.00,,,0.00,WX3IN1Plus v1.30,2013-03-30 18:55:00,
2013-03-30 15:00:00,59.7,27.2,30.23,NNW,337,1.4,7.4,29,0.00,,,0.00,WX3IN1Plus v1.30,2013-03-30 19:00:00,
2013-03-30 15:05:00,59.5,27.0,30.23,West,279,1.7,6.4,29,0.00,,,0.00,WX3IN1Plus v1.30,2013-03-30 19:05:00,
2013-03-30 15:10:00,59.3,27.0,30.23,NNE,15,0.7,8.5,29,0.00,,,0.00,WX3IN1Plus v1.30,2013-03-30 19:10:00,
2013-03-30 15:15:00,59.1,27.7,30.23,NNE,16,0.0,7.7,30,0.00,,,0.00,WX3IN1Plus v1.30,2013-03-30 19:15:00,
2013-03-30 15:20:00,59.0,27.7,30.23,North,358,1.8,6.2,30,0.00,,,0.00,WX3IN1Plus v1.30,2013-03-30 19:20:00,
2013-03-30 15:25:00,58.8,27.5,30.22,NNW,329,0.0,5.2,30,0.00,,,0.00,WX3IN1Plus v1.30,2013-03-30 19:25:00,
2013-03-30 15:30:00,58.4,27.0,30.22,WNW,293,0.0,5.4,30,0.00,,,0.00,WX3IN1Plus v1.30,2013-03-30 19:30:00,
2013-03-30 15:35:00,58.7,26.5,30.22,NNE,18,2.9,6.2,29,0.00,,,0.00,WX3IN1Plus v1.30,2013-03-30 19:35:00,
2013-03-30 15:40:00,58.9,25.7,30.22,NNE,29,0.0,7.8,28,0.00,,,0.00,WX3IN1Plus v1.30,2013-03-30 19:40:00,
2013-03-30 15:45:00,59.2,27.9,30.22,NNW,327,4.9,9.2,30,0.00,,,0.00,WX3IN1Plus v1.30,2013-03-30 19:45:00,
2013-03-30 15:51:00,59.8,25.7,30.22,NW,323,5.5,7.9,27,0.00,,,0.00,WX3IN1Plus v1.30,2013-03-30 19:51:00,
2013-03-30 15:55:00,60.2,27.0,30.22,SSW,202,0.8,5.7,28,0.00,,,0.00,WX3IN1Plus v1.30,2013-03-30 19:55:00,
2013-03-30 16:01:00,60.5,26.3,30.22,NW,326,0.0,6.0,27,0.00,,,0.00,WX3IN1Plus v1.30,2013-03-30 20:01:00,
2013-03-30 16:06:00,60.5,26.3,30.21,WSW,255,1.1,4.7,27,0.00,,,0.00,WX3IN1Plus v1.30,2013-03-30 20:06:00,
2013-03-30 16:11:00,60.8,27.5,30.22,SW,223,3.6,6.0,28,0.00,,,0.00,WX3IN1Plus v1.30,2013-03-30 20:11:00,
2013-03-30 16:16:00,61.4,27.0,30.22,NW,322,2.6,6.2,27,0.00,,,0.00,WX3IN1Plus v1.30,2013-03-30 20:16:00,
2013-03-30 16:21:00,61.5,27.0,30.22,NNE,30,0.0,8.2,27,0.00,,,0.00,WX3IN1Plus v1.30,2013-03-30 20:21:00,
2013-03-30 16:26:00,61.5,25.0,30.22,NW,307,0.0,6.8,25,0.00,,,0.00,WX3IN1Plus v1.30,2013-03-30 20:26:00,
2013-03-30 16:31:00,61.7,25.6,30.22,WNW,285,0.0,7.2,25,0.00,,,0.00,WX3IN1Plus v1.30,2013-03-30 20:31:00,
2013-03-30 16:36:00,61.9,24.7,30.22,WSW,247,0.0,11.0,24,0.00,,,0.00,WX3IN1Plus v1.30,2013-03-30 20:36:00,
2013-03-30 16:41:00,62.2,25.7,30.22,North,352,4.5,6.5,25,0.00,,,0.00,WX3IN1Plus v1.30,2013-03-30 20:41:00,
2013-03-30 16:46:00,62.2,23.9,30.22,NNE,26,5.9,9.8,23,0.00,,,0.00,WX3IN1Plus v1.30,2013-03-30 20:46:00,
2013-03-30 16:51:00,62.0,25.6,30.22,WSW,247,3.9,7.2,25,0.00,,,0.00,WX3IN1Plus v1.30,2013-03-30 20:51:00,
2013-03-30 16:56:00,62.2,25.7,30.22,WNW,286,0.0,4.8,25,0.00,,,0.00,WX3IN1Plus v1.30,2013-03-30 20:56:00,
2013-03-30 17:01:00,62.7,25.4,30.21,NW,319,3.1,8.1,24,0.00,,,0.00,WX3IN1Plus v1.30,2013-03-30 21:01:00,
2013-03-30 17:06:00,62.3,25.0,30.21,WSW,241,0.0,5.8,24,0.00,,,0.00,WX3IN1Plus v1.30,2013-03-30 21:06:00,
2013-03-30 17:12:00,62.4,24.1,30.21,North,2,0.0,6.2,23,0.00,,,0.00,WX3IN1Plus v1.30,2013-03-30 21:12:00,
2013-03-30 17:17:00,61.9,23.6,30.21,NE,47,7.0,10.9,23,0.00,,,0.00,WX3IN1Plus v1.30,2013-03-30 21:17:00,
2013-03-30 17:22:00,61.3,23.2,30.21,NE,43,0.0,7.5,23,0.00,,,0.00,WX3IN1Plus v1.30,2013-03-30 21:22:00,
2013-03-30 17:27:00,61.3,23.2,30.21,ENE,66,0.0,3.8,23,0.00,,,0.00,WX3IN1Plus v1.30,2013-03-30 21:27:00,
2013-03-30 17:32:00,61.4,24.1,30.21,West,278,1.9,6.5,24,0.00,,,0.00,WX3IN1Plus v1.30,2013-03-30 21:32:00,
2013-03-30 17:37:00,61.3,24.1,30.21,SW,220,0.0,8.0,24,0.00,,,0.00,WX3IN1Plus v1.30,2013-03-30 21:37:00,
2013-03-30 17:42:00,60.7,22.7,30.21,East,82,5.5,6.8,23,0.00,,,0.00,WX3IN1Plus v1.30,2013-03-30 21:42:00,
2013-03-30 17:47:00,59.8,22.0,30.21,North,9,5.4,9.1,23,0.00,,,0.00,WX3IN1Plus v1.30,2013-03-30 21:47:00,
2013-03-30 17:52:00,59.4,21.4,30.21,North,7,0.0,7.9,23,0.00,,,0.00,WX3IN1Plus v1.30,2013-03-30 21:52:00,
2013-03-30 17:57:00,59.0,23.2,30.21,NNE,25,1.0,6.0,25,0.00,,,0.00,WX3IN1Plus v1.30,2013-03-30 21:57:00,
2013-03-30 18:02:00,58.6,22.7,30.21,NW,310,2.6,2.6,25,0.00,,,0.00,WX3IN1Plus v1.30,2013-03-30 22:02:00,
2013-03-30 18:07:00,58.2,22.5,30.21,NW,309,3.6,7.8,25,0.00,,,0.00,WX3IN1Plus v1.30,2013-03-30 22:07:00,
2013-03-30 18:12:00,58.0,22.1,30.21,NNW,331,1.6,8.5,25,0.00,,,0.00,WX3IN1Plus v1.30,2013-03-30 22:12:00,
2013-03-30 18:17:00,57.6,22.0,30.21,North,7,0.1,5.7,25,0.00,,,0.00,WX3IN1Plus v1.30,2013-03-30 22:17:00,
2013-03-30 18:22:00,57.3,22.7,30.21,North,354,0.0,4.9,26,0.00,,,0.00,WX3IN1Plus v1.30,2013-03-30 22:22:00,
2013-03-30 18:27:00,57.4,22.7,30.21,WNW,291,0.0,4.9,26,0.00,,,0.00,WX3IN1Plus v1.30,2013-03-30 22:27:00,
2013-03-30 18:32:00,57.2,23.6,30.21,WSW,243,0.0,5.5,27,0.00,,,0.00,WX3IN1Plus v1.30,2013-03-30 22:32:00,
2013-03-30 18:37:00,57.0,23.2,30.21,WSW,243,0.0,0.0,27,0.00,,,0.00,WX3IN1Plus v1.30,2013-03-30 22:37:00,
2013-03-30 18:42:00,57.0,23.2,30.21,NNW,330,3.1,4.5,27,0.00,,,0.00,WX3IN1Plus v1.30,2013-03-30 22:42:00,
2013-03-30 18:47:00,56.8,22.1,30.22,NW,315,0.0,4.9,26,0.00,,,0.00,WX3IN1Plus v1.30,2013-03-30 22:47:00,
2013-03-30 18:52:00,56.7,23.2,30.22,WNW,303,0.0,4.1,27,0.00,,,0.00,WX3IN1Plus v1.30,2013-03-30 22:52:00,
2013-03-30 18:57:00,56.4,22.7,30.21,WNW,303,0.0,0.0,27,0.00,,,0.00,WX3IN1Plus v1.30,2013-03-30 22:57:00,
2013-03-30 19:02:00,56.2,23.6,30.21,WNW,303,0.0,0.0,28,0.00,,,0.00,WX3IN1Plus v1.30,2013-03-30 23:02:00,
2013-03-30 19:07:00,55.9,22.1,30.22,WNW,303,0.0,0.0,27,0.00,,,0.00,WX3IN1Plus v1.30,2013-03-30 23:07:00,
2013-03-30 19:12:00,55.7,23.9,30.22,WNW,303,0.0,0.0,29,0.00,,,0.00,WX3IN1Plus v1.30,2013-03-30 23:12:00,
2013-03-30 19:17:00,55.5,25.4,30.22,WNW,303,0.0,0.0,31,0.00,,,0.00,WX3IN1Plus v1.30,2013-03-30 23:17:00,
2013-03-30 19:22:00,55.2,26.5,30.22,WNW,303,0.0,0.0,33,0.00,,,0.00,WX3IN1Plus v1.30,2013-03-30 23:22:00,
2013-03-30 19:27:00,54.3,27.7,30.22,WNW,303,0.0,0.0,36,0.00,,,0.00,WX3IN1Plus v1.30,2013-03-30 23:27:00,
2013-03-30 19:32:00,53.7,28.4,30.22,WNW,303,0.0,0.0,38,0.00,,,0.00,WX3IN1Plus v1.30,2013-03-30 23:32:00,
2013-03-30 19:37:00,53.2,29.0,30.22,SSE,160,0.0,1.1,39,0.00,,,0.00,WX3IN1Plus v1.30,2013-03-30 23:37:00,
2013-03-30 19:42:00,52.6,29.7,30.22,SSE,160,0.0,0.0,41,0.00,,,0.00,WX3IN1Plus v1.30,2013-03-30 23:42:00,
2013-03-30 19:47:00,51.8,29.3,30.22,SSE,160,0.0,0.0,42,0.00,,,0.00,WX3IN1Plus v1.30,2013-03-30 23:47:00,
2013-03-30 19:52:00,51.2,29.3,30.22,SSE,160,0.0,0.0,43,0.00,,,0.00,WX3IN1Plus v1.30,2013-03-30 23:52:00,
2013-03-30 19:57:00,50.7,29.3,30.22,SSE,160,0.0,0.0,44,0.00,,,0.00,WX3IN1Plus v1.30,2013-03-30 23:57:00,
2013-03-30 20:03:00,50.4,29.9,30.22,SSE,160,0.0,0.0,45,0.00,,,0.00,WX3IN1Plus v1.30,2013-03-31 00:03:00,
2013-03-30 20:08:00,50.0,29.3,30.22,SSE,160,0.0,0.0,45,0.00,,,0.00,WX3IN1Plus v1.30,2013-03-31 00:08:00,
2013-03-30 20:13:00,49.8,29.7,30.22,SSE,160,0.0,0.0,46,0.00,,,0.00,WX3IN1Plus v1.30,2013-03-31 00:13:00,
2013-03-30 20:18:00,49.5,29.3,30.23,SSE,160,0.0,0.8,46,0.00,,,0.00,WX3IN1Plus v1.30,2013-03-31 00:18:00,
2013-03-30 20:23:00,49.2,29.2,30.23,SSE,160,0.0,0.0,46,0.00,,,0.00,WX3IN1Plus v1.30,2013-03-31 00:23:00,
2013-03-30 20:28:00,49.0,29.3,30.23,SSE,160,0.0,0.0,47,0.00,,,0.00,WX3IN1Plus v1.30,2013-03-31 00:28:00,
2013-03-30 20:33:00,48.6,29.2,30.23,SSE,160,0.0,0.0,47,0.00,,,0.00,WX3IN1Plus v1.30,2013-03-31 00:33:00,
2013-03-30 20:38:00,48.4,29.7,30.23,SSE,160,0.0,0.0,48,0.00,,,0.00,WX3IN1Plus v1.30,2013-03-31 00:38:00,
2013-03-30 20:43:00,48.0,29.2,30.23,SSE,160,0.0,0.0,48,0.00,,,0.00,WX3IN1Plus v1.30,2013-03-31 00:43:00,
2013-03-30 20:48:00,47.5,29.3,30.24,SSE,160,0.0,0.0,49,0.00,,,0.00,WX3IN1Plus v1.30,2013-03-31 00:48:00,
2013-03-30 20:53:00,47.3,29.2,30.24,SSE,160,0.0,0.0,49,0.00,,,0.00,WX3IN1Plus v1.30,2013-03-31 00:53:00,
2013-03-30 20:58:00,47.2,29.0,30.24,SSE,160,0.0,0.0,49,0.00,,,0.00,WX3IN1Plus v1.30,2013-03-31 00:58:00,
2013-03-30 21:03:00,46.9,29.2,30.24,SSE,160,0.0,0.0,50,0.00,,,0.00,WX3IN1Plus v1.30,2013-03-31 01:03:00,
2013-03-30 21:08:00,46.4,29.3,30.24,SSE,160,0.0,0.0,51,0.00,,,0.00,WX3IN1Plus v1.30,2013-03-31 01:08:00,
2013-03-30 21:13:00,46.0,29.0,30.24,SSE,160,0.0,0.0,51,0.00,,,0.00,WX3IN1Plus v1.30,2013-03-31 01:13:00,
2013-03-30 21:18:00,45.7,28.6,30.24,SSE,160,0.0,0.0,51,0.00,,,0.00,WX3IN1Plus v1.30,2013-03-31 01:18:00,
2013-03-30 21:23:00,45.5,29.0,30.24,SSE,160,0.0,0.0,52,0.00,,,0.00,WX3IN1Plus v1.30,2013-03-31 01:23:00,
2013-03-30 21:28:00,45.1,28.4,30.24,SSE,160,0.0,0.0,52,0.00,,,0.00,WX3IN1Plus v1.30,2013-03-31 01:28:00,
2013-03-30 21:33:00,44.6,28.6,30.24,SSE,160,0.0,0.0,53,0.00,,,0.00,WX3IN1Plus v1.30,2013-03-31 01:33:00,
2013-03-30 21:38:00,44.5,28.6,30.24,SSE,160,0.0,0.0,54,0.00,,,0.00,WX3IN1Plus v1.30,2013-03-31 01:38:00,
2013-03-30 21:43:00,44.1,28.4,30.24,SSE,160,0.0,0.0,54,0.00,,,0.00,WX3IN1Plus v1.30,2013-03-31 01:43:00,
2013-03-30 21:48:00,44.0,28.3,30.24,SSE,160,0.0,0.0,54,0.00,,,0.00,WX3IN1Plus v1.30,2013-03-31 01:48:00,
2013-03-30 21:53:00,43.7,28.4,30.24,SSE,160,0.0,0.0,55,0.00,,,0.00,WX3IN1Plus v1.30,2013-03-31 01:53:00,
2013-03-30 21:58:00,43.4,28.6,30.24,SSE,160,0.0,0.0,56,0.00,,,0.00,WX3IN1Plus v1.30,2013-03-31 01:58:00,
2013-03-30 22:03:00,43.1,29.0,30.24,SSE,160,0.0,0.0,57,0.00,,,0.00,WX3IN1Plus v1.30,2013-03-31 02:03:00,
2013-03-30 22:08:00,42.9,28.6,30.24,SSE,160,0.0,0.0,57,0.00,,,0.00,WX3IN1Plus v1.30,2013-03-31 02:08:00,
2013-03-30 22:13:00,42.8,28.6,30.24,SSE,160,0.0,0.0,57,0.00,,,0.00,WX3IN1Plus v1.30,2013-03-31 02:13:00,
2013-03-30 22:18:00,42.7,28.4,30.24,SSE,160,0.0,0.0,57,0.00,,,0.00,WX3IN1Plus v1.30,2013-03-31 02:18:00,
2013-03-30 22:23:00,42.6,28.4,30.24,SSE,160,0.0,0.0,57,0.00,,,0.00,WX3IN1Plus v1.30,2013-03-31 02:23:00,
2013-03-30 22:28:00,42.6,29.0,30.24,SSE,160,0.0,0.0,58,0.00,,,0.00,WX3IN1Plus v1.30,2013-03-31 02:28:00,
2013-03-30 22:33:00,42.5,29.0,30.24,SSE,160,0.0,0.0,58,0.00,,,0.00,WX3IN1Plus v1.30,2013-03-31 02:33:00,
2013-03-30 22:38:00,42.4,28.6,30.24,SSE,160,0.0,0.0,58,0.00,,,0.00,WX3IN1Plus v1.30,2013-03-31 02:38:00,
2013-03-30 22:43:00,42.4,29.0,30.24,SSE,160,0.0,0.0,59,0.00,,,0.00,WX3IN1Plus v1.30,2013-03-31 02:43:00,
2013-03-30 22:48:00,42.1,28.6,30.24,SSE,160,0.0,0.0,59,0.00,,,0.00,WX3IN1Plus v1.30,2013-03-31 02:48:00,
2013-03-30 22:53:00,41.8,28.4,30.24,SSE,160,0.0,0.0,59,0.00,,,0.00,WX3IN1Plus v1.30,2013-03-31 02:53:00,
2013-03-30 22:58:00,41.7,28.6,30.24,SSE,160,0.0,0.0,60,0.00,,,0.00,WX3IN1Plus v1.30,2013-03-31 02:58:00,
2013-03-30 23:03:00,41.5,28.4,30.23,SSE,160,0.0,0.0,60,0.00,,,0.00,WX3IN1Plus v1.30,2013-03-31 03:03:00,
2013-03-30 23:08:00,41.2,29.0,30.23,SSE,160,0.0,0.0,61,0.00,,,0.00,WX3IN1Plus v1.30,2013-03-31 03:08:00,
2013-03-30 23:13:00,40.9,28.4,30.23,SSE,160,0.0,0.0,61,0.00,,,0.00,WX3IN1Plus v1.30,2013-03-31 03:13:00,
2013-03-30 23:18:00,40.9,28.4,30.23,SSE,160,0.0,0.0,61,0.00,,,0.00,WX3IN1Plus v1.30,2013-03-31 03:18:00,
2013-03-30 23:23:00,40.7,28.6,30.23,SSE,160,0.0,0.0,62,0.00,,,0.00,WX3IN1Plus v1.30,2013-03-31 03:23:00,
2013-03-30 23:28:00,40.5,29.0,30.23,SSE,160,0.0,0.0,63,0.00,,,0.00,WX3IN1Plus v1.30,2013-03-31 03:28:00,
2013-03-30 23:33:00,40.3,28.6,30.23,SSE,160,0.0,0.0,63,0.00,,,0.00,WX3IN1Plus v1.30,2013-03-31 03:33:00,
2013-03-30 23:38:00,40.3,28.6,30.23,SSE,160,0.0,0.0,63,0.00,,,0.00,WX3IN1Plus v1.30,2013-03-31 03:38:00,
2013-03-30 23:43:00,40.0,28.4,30.23,SSE,160,0.0,0.0,63,0.00,,,0.00,WX3IN1Plus v1.30,2013-03-31 03:43:00,
2013-03-30 23:48:00,39.9,28.3,30.23,SSE,160,0.0,0.0,63,0.00,,,0.00,WX3IN1Plus v1.30,2013-03-31 03:48:00,
2013-03-30 23:53:00,39.8,28.4,30.23,SSE,160,0.0,0.0,64,0.00,,,0.00,WX3IN1Plus v1.30,2013-03-31 03:53:00,
2013-03-30 23:58:00,39.7,28.3,30.23,SSE,160,0.0,0.0,64,0.00,,,0.00,WX3IN1Plus v1.30,2013-03-31 03:58:00,